Regional Weather Roundup
Issued by NWS

Home | Current Version | Previous Version | Text Only | Print | Product List | Glossary Off
Versions: 1 2 3 4 5 6 7 8 9 10 11 12 13 14 15 16 17 18 19 20 21 22 23 24 25 26 27 28 29 30 31 32 33 34 35 36 37 38 39 40 41 42 43 44 45 46 47 48 49 50

000
ASUS45 KABQ 291701
RWRNM
NEW MEXICO REGIONAL WEATHER ROUNDUP
NATIONAL WEATHER SERVICE ALBUQUERQUE NM
1100 AM MDT FRI JUL 29 2016

NOTE: "FAIR" MEANS FEW OR NO CLOUDS BELOW 12,000 FEET AGL WITH NO
       SIGNIFICANT WEATHER OR OBSTRUCTIONS TO VISION.

      THIS PRODUCT IS RELEASED AS TWO VERSIONS.  ONE VERSION NEAR
      THE TOP OF THE HOUR CONTAINING PRELIMINARY DATA FROM ALBUQUERQUE
      AND OTHER STATIONS.  A FINAL VERSION WITH ADDITIONAL DATA IS
      ISSUED ABOUT 10 MINUTES AFTER THE HOUR.

NMZ501-503-504-510>518-291800-
NORTHWEST PLATEAU/NORTHCENTRAL MOUNTAINS

CITY           SKY/WX    TMP DP  RH WIND       PRES   REMARKS
FARMINGTON     FAIR      86  41  20 VRB3      30.15S
LOS ALAMOS     FAIR      80  44  28 SE15G24   30.31S
SANTA FE       NOT AVBL
TAOS           FAIR      79  41  25 W8        30.31S
ANGEL FIRE     FAIR      74  44  33 W12G18    30.39S

$$
NMZ402-403-502-505>509-291800-
WESTCENTRAL MOUNTAINS/SOUTHWEST MOUNTAINS

CITY           SKY/WX    TMP DP  RH WIND       PRES   REMARKS
GALLUP         FAIR      88  43  20 MISG      30.25S
GRANTS         FAIR      83  43  24 N3        30.28S
SILVER CITY    FAIR      82  53  35 SE7       30.22S

$$
NMZ407-409-411-412-291800-
SOUTHERN DESERTS

CITY           SKY/WX    TMP DP  RH WIND       PRES   REMARKS
LORDSBURG      FAIR      90  54  29 SE12G18   30.11S
DEMING         NOT AVBL
LAS CRUCES     FAIR      87  53  30 E5        30.15S
HOLLOMAN AFB   FAIR      87  55  34 VRB1      30.11S
ALAMOGORDO     FAIR      86  54  32 W6        30.14S
T OR C         FAIR      87  54  32 S8        30.15F

$$
NMZ519>523-291800-
CENTRAL VALLEYS/CENTRAL HIGHLANDS

CITY           SKY/WX    TMP DP  RH WIND       PRES   REMARKS
ALBUQUERQUE    FAIR      87  52  29 SE14G26   30.18F
DOUBLE EAGLE   MOSUNNY   88  52  29 S7        30.23F
MORIARTY ARPT  FAIR      81  41  23 SE21      30.30R
CLINES CORNERS FAIR      77  42  28 S24       30.35S
BELEN          FAIR      88  50  26 SE21G28   30.19R
SOCORRO        FAIR      85  51  30 SE16      30.17R

$$
NMZ524>526-539-540-291800-
SOUTHCENTRAL MOUNTAINS

CITY           SKY/WX    TMP DP  RH WIND       PRES   REMARKS
RUIDOSO          N/A     77  50  38 SE10      30.38R

$$
NMZ527>531-291800-
NORTHEAST HIGHLANDS/NORTHEAST PLAINS

CITY           SKY/WX    TMP DP  RH WIND       PRES   REMARKS
LAS VEGAS      FAIR      78  51  38 S24       30.30S
RATON          FAIR      75  53  46 S10       30.24S
CLAYTON        FAIR      84  59  42 S16G22    30.19S

$$
NMZ532>537-291800-
EASTCENTRAL PLAINS

CITY           SKY/WX    TMP DP  RH WIND       PRES   REMARKS
TUCUMCARI      FAIR      91  50  24 SW12      30.12R
CANNON AFB     FAIR      86  60  41 SW10      30.16S
CLOVIS AIRPORT FAIR      88  59  37 S5        30.17R

$$
NMZ028-029-538-291800-
SOUTHEAST PLAINS

CITY           SKY/WX    TMP DP  RH WIND       PRES   REMARKS
ROSWELL        FAIR      88  60  38 VRB3      30.13S
ARTESIA        FAIR      86  57  37 SE7       30.13F
CARLSBAD       FAIR      88  58  36 SE13      30.11R


$$



USA.gov is the U.S. government's official web portal to all federal, state and local government web resources and services.